Akron Canton, OH

8:44 PM EDT on August 18, 2017 (GMT -0400)
Akron-Canton Regional

Weather History for KCAK - January, 2012

Change the Weather History Date:

Friday, January 27, 2012

  Actual Average Record
Temperature  
Mean Temperature 43 °F 26 °F  
Max Temperature 54 °F 33 °F 67 °F (1916)
Min Temperature 32 °F 19 °F -9 °F (1936)
Degree Days  
Heating Degree Days 22 39  
Month to date heating degree days 917 1051  
Since 1 July heating degree days 2828 3381  
Cooling Degree Days 0 0  
Month to date cooling degree days 0 0  
Year to date cooling degree days 0 0  
Moisture  
Dew Point 33 °F    
Average Humidity 84    
Maximum Humidity 93    
Minimum Humidity 75    
Precipitation  
Precipitation 0.39 in 0.08 in 0.77 in (1949)
Month to date precipitation 3.27 2.29  
Year to date precipitation 3.27 2.29  
Snow  
Snow 0.40 in 0.40 in - ()
Month to date snowfall 13.1 10.8  
Since 1 July snowfall 15.6 24.4  
Snow Depth 0.00 in    
Sea Level Pressure  
Sea Level Pressure 29.71 in    
Wind  
Wind Speed 11 mph (West)    
Max Wind Speed 24 mph    
Max Gust Speed 30 mph    
Visibility 4 miles    
Events Rain , Snow    
T = Trace of Precipitation, MM = Missing Value Source: NWS Daily Summary

Daily Weather History Graph

Daily Weather History Graph

Search for Another Location

Airport or City:

Trip Planner

Search our weather history database for the weather conditions in past years. The results will help you decide how hot, cold, wet, or windy it might be!

Date:

Astronomy

Jan. 27, 2012 Rise Set
Actual Time 7:41 AM EST 5:36 PM EST
Civil Twilight 7:11 AM EST 6:05 PM EST
Nautical Twilight 6:38 AM EST 6:38 PM EST
Astronomical Twilight 6:06 AM EST 7:11 PM EST
Moon 9:32 AM EST (1/27) 10:28 PM EST (1/27)
Length of Visible Light 10h 53m
Length of Day
9h 55m
Waxing Crescent, 19% of the Moon is Illuminated
Jan 27
Waxing Crescent
Jan 30
First Quarter
Feb 7
Full
Feb 14
Last Quarter
Feb 21
New

Hourly Weather History & Observations

Time (EST) Temp. Windchill Dew Point Humidity Pressure Visibility Wind Dir Wind Speed Gust Speed Precip Events Conditions
12:51 AM 54.0 °F - 51.1 °F 90% 29.41 in 3.0 mi SSW 8.1 mph - 0.11 in Rain Rain
1:21 AM 48.2 °F - 46.4 °F 93% 29.40 in 3.0 mi NW 12.7 mph - 0.14 in Rain Heavy Rain
1:51 AM 48.0 °F - 46.0 °F 93% 29.41 in 3.0 mi NNW 6.9 mph - 0.21 in Rain Rain
2:51 AM 46.9 °F - 45.0 °F 93% 29.39 in 3.0 mi NNW 5.8 mph - 0.02 in   Overcast
3:51 AM 44.1 °F 38.1 °F 42.1 °F 93% 29.40 in 3.0 mi NW 11.5 mph - N/A   Overcast
4:51 AM 41.0 °F 33.9 °F 39.2 °F 93% 29.40 in 3.0 mi WNW 12.7 mph - N/A   Overcast
5:51 AM 37.0 °F 28.5 °F 34.0 °F 89% 29.47 in 3.0 mi WNW 13.8 mph 21.9 mph 0.00 in Rain Light Rain
6:47 AM 33.8 °F 23.9 °F 30.2 °F 87% 29.52 in 2.0 mi West 15.0 mph 25.3 mph 0.02 in Rain Light Freezing Rain
6:51 AM 34.0 °F 24.2 °F 30.9 °F 89% 29.54 in 2.0 mi West 15.0 mph 25.3 mph 0.03 in Rain Light Freezing Rain
7:13 AM 33.8 °F 23.5 °F 30.2 °F 87% 29.55 in 2.0 mi West 16.1 mph 26.5 mph 0.00 in Rain , Snow Light Snow
7:51 AM 33.1 °F 23.0 °F 30.9 °F 92% 29.60 in 2.0 mi West 15.0 mph - 0.01 in Rain , Snow Light Snow
8:24 AM 33.8 °F 23.9 °F 30.2 °F 87% 29.59 in 1.5 mi West 15.0 mph 23.0 mph 0.00 in Rain , Snow Light Snow
8:51 AM 33.1 °F 22.6 °F 30.9 °F 92% 29.65 in 1.5 mi West 16.1 mph 21.9 mph 0.01 in Rain , Snow Light Snow
9:51 AM 34.0 °F 26.0 °F 30.9 °F 89% 29.68 in 2.0 mi West 10.4 mph - 0.00 in Snow Light Snow
10:24 AM 33.8 °F 24.8 °F 30.2 °F 87% 29.69 in 3.0 mi West 12.7 mph - 0.00 in Snow Light Snow
10:51 AM 34.0 °F 24.2 °F 30.9 °F 89% 29.74 in 2.0 mi West 15.0 mph - 0.00 in Snow Light Snow
11:51 AM 35.6 °F 27.5 °F 32.0 °F 87% 29.74 in 2.0 mi West 11.5 mph - N/A Snow Light Snow
12:51 PM 35.1 °F 25.5 °F 32.0 °F 89% 29.78 in 2.0 mi West 15.0 mph 25.3 mph 0.00 in Snow Light Snow
1:51 PM 34.0 °F 22.7 °F 30.9 °F 89% 29.78 in 2.0 mi West 19.6 mph 26.5 mph 0.01 in Snow Light Snow
1:53 PM 33.8 °F 22.2 °F 30.2 °F 87% 29.76 in 2.0 mi WNW 20.7 mph 27.6 mph 0.00 in Snow Light Snow
2:23 PM 33.8 °F 24.3 °F 30.2 °F 87% 29.78 in 5.0 mi WNW 13.8 mph 24.2 mph 0.00 in   Overcast
2:51 PM 35.1 °F 25.5 °F 30.0 °F 82% 29.82 in 5.0 mi WNW 15.0 mph 20.7 mph 0.00 in   Haze
3:51 PM 35.1 °F 27.4 °F 30.9 °F 85% 29.85 in 5.0 mi WNW 10.4 mph - N/A   Overcast
4:49 PM 35.6 °F 29.2 °F 30.2 °F 81% 29.87 in 8.0 mi WNW 8.1 mph - N/A   Overcast
4:51 PM 35.1 °F 27.9 °F 30.0 °F 82% 29.90 in 8.0 mi West 9.2 mph - N/A   Overcast
5:51 PM 35.1 °F 29.3 °F 28.0 °F 76% 29.95 in 9.0 mi West 6.9 mph - N/A   Overcast
6:51 PM 35.1 °F 28.6 °F 28.0 °F 76% 29.99 in 9.0 mi West 8.1 mph - N/A   Overcast
7:51 PM 33.1 °F 27.7 °F 27.0 °F 78% 30.02 in 8.0 mi WSW 5.8 mph - N/A   Mostly Cloudy
8:51 PM 33.1 °F 27.7 °F 27.0 °F 78% 30.04 in 7.0 mi SW 5.8 mph - N/A   Overcast
9:51 PM 33.1 °F 26.9 °F 28.0 °F 82% 30.04 in 7.0 mi SW 6.9 mph - N/A   Overcast
10:51 PM 33.1 °F 26.9 °F 28.0 °F 82% 30.04 in 5.0 mi SW 6.9 mph - N/A   Haze
11:51 PM 33.1 °F 25.5 °F 28.9 °F 85% 30.03 in 4.0 mi SW 9.2 mph - N/A   Mostly Cloudy